| time (UTC) | temp F | wind direction | speed MPH | gust MPH | rain 1hr in | rain 24hr in | rain mn in | humidity % | barometer mb |
| 20260507212027 | 52 | 247 | 0.0 | 0.0 | 0.00 | 0.00 | 0.00 | 50 | 1019.0 |
| 20260507211021 | 51 | 259 | 1.0 | 0.0 | 0.00 | 0.00 | 0.00 | 52 | 1019.3 |
| 20260507210034 | 51 | 155 | 1.0 | 0.0 | 0.00 | 0.00 | 0.00 | 51 | 1018.7 |
| 20260507205029 | 51 | 211 | 1.0 | 0.0 | 0.00 | 0.00 | 0.00 | 50 | 1018.9 |
| 20260507203022 | 50 | 306 | 0.0 | 0.0 | 0.00 | 0.00 | 0.00 | 51 | 1019.5 |
| 20260507202039 | 50 | 245 | 1.0 | 0.0 | 0.00 | 0.00 | 0.00 | 51 | 1019.6 |
| 20260507201030 | 51 | 226 | 1.0 | 0.0 | 0.00 | 0.00 | 0.00 | 54 | 1019.7 |
| 20260507200022 | 50 | 219 | 0.0 | 0.0 | 0.00 | 0.00 | 0.00 | 55 | 1019.9 |
| 20260507194038 | 49 | 344 | 1.0 | 0.0 | 0.00 | 0.00 | 0.00 | 54 | 1020.2 |
| 20260507193032 | 50 | 33 | 1.0 | 0.0 | 0.00 | 0.00 | 0.00 | 50 | 1019.6 |
| 20260507192028 | 49 | 280 | 1.0 | 0.0 | 0.00 | 0.00 | 0.00 | 52 | 1019.9 |
| 20260507191020 | 49 | 200 | 1.0 | 0.0 | 0.00 | 0.00 | 0.00 | 47 | 1020.1 |
| 20260507190033 | 48 | 294 | 1.0 | 0.0 | 0.00 | 0.00 | 0.00 | 50 | 1020.3 |
| 20260507185031 | 48 | 271 | 2.0 | 0.0 | 0.00 | 0.00 | 0.00 | 48 | 1020.5 |
| 20260507184029 | 51 | 20 | 1.0 | 0.0 | 0.00 | 0.00 | 0.00 | 49 | 1020.5 |
| 20260507183021 | 50 | 146 | 2.0 | 0.0 | 0.00 | 0.00 | 0.00 | 50 | 1020.7 |
| 20260507182038 | 50 | 298 | 1.0 | 0.0 | 0.00 | 0.00 | 0.00 | 46 | 1020.8 |
| 20260507181030 | 49 | 245 | 1.0 | 0.0 | 0.00 | 0.00 | 0.00 | 50 | 1020.3 |
| 20260507175027 | 49 | 270 | 2.0 | 0.0 | 0.00 | 0.00 | 0.00 | 50 | 1020.5 |
| 20260507174026 | 48 | 202 | 2.0 | 0.0 | 0.00 | 0.00 | 0.00 | 47 | 1020.6 |
| 20260507172037 | 47 | 244 | 4.0 | 0.0 | 0.00 | 0.00 | 0.00 | 50 | 1020.8 |
| 20260507170030 | 45 | 209 | 3.0 | 0.0 | 0.00 | 0.00 | 0.00 | 54 | 1020.8 |
| 20260507164021 | 42 | 128 | 3.0 | 0.0 | 0.00 | 0.00 | 0.00 | 54 | 1021.1 |
| 20260507163033 | 41 | 210 | 2.0 | 0.0 | 0.00 | 0.00 | 0.00 | 55 | 1021.3 |
| 20260507162034 | 39 | 321 | 1.0 | 0.0 | 0.00 | 0.00 | 0.00 | 62 | 1021.6 |
| 20260507161028 | 37 | 94 | 3.0 | 0.0 | 0.00 | 0.00 | 0.00 | 63 | 1021.7 |
| 20260507160022 | 36 | 86 | 2.0 | 0.0 | 0.00 | 0.00 | 0.00 | 65 | 1021.9 |
| 20260507155036 | 35 | 14 | 2.0 | 0.0 | 0.00 | 0.00 | 0.00 | 63 | 1022.1 |
| 20260507153027 | 34 | 18 | 1.0 | 0.0 | 0.00 | 0.00 | 0.00 | 68 | 1021.3 |
| 20260507152021 | 33 | 360 | 3.0 | 0.0 | 0.00 | 0.00 | 0.00 | 70 | 1021.5 |
| 20260507151032 | 31 | 345 | 2.0 | 0.0 | 0.00 | 0.00 | 0.00 | 72 | 1021.7 |
| 20260507150024 | 30 | 346 | 2.0 | 0.0 | 0.00 | 0.00 | 0.00 | 72 | 1021.9 |
| 20260507145019 | 31 | 360 | 1.0 | 0.0 | 0.00 | 0.00 | 0.00 | 72 | 1021.9 |
| 20260507144019 | 31 | 337 | 1.0 | 0.0 | 0.00 | 0.00 | 0.00 | 70 | 1022.0 |
| 20260507143035 | 31 | 58 | 1.0 | 0.0 | 0.00 | 0.00 | 0.00 | 70 | 1022.3 |
| 20260507142030 | 32 | 58 | 1.0 | 0.0 | 0.00 | 0.00 | 0.00 | 69 | 1022.3 |
| 20260507141025 | 31 | 35 | 1.0 | 0.0 | 0.00 | 0.00 | 0.00 | 70 | 1022.6 |
| 20260507140022 | 30 | 52 | 1.0 | 0.0 | 0.00 | 0.00 | 0.00 | 69 | 1022.7 |
| 20260507135038 | 30 | 80 | 1.0 | 0.0 | 0.00 | 0.00 | 0.00 | 71 | 1022.6 |
| 20260507134029 | 31 | 80 | 2.0 | 0.0 | 0.00 | 0.00 | 0.00 | 70 | 1022.5 |
| 20260507133024 | 30 | 309 | 1.0 | 0.0 | 0.00 | 0.00 | 0.00 | 70 | 1022.7 |
| 20260507132020 | 29 | 87 | 0.0 | 0.0 | 0.00 | 0.00 | 0.00 | 70 | 1022.2 |
| 20260507131033 | 29 | 87 | 1.0 | 0.0 | 0.00 | 0.00 | 0.00 | 72 | 1022.0 |
| 20260507130030 | 28 | 87 | 1.0 | 0.0 | 0.00 | 0.00 | 0.00 | 71 | 1022.1 |
| 20260507124037 | 28 | 132 | 3.0 | 0.0 | 0.00 | 0.00 | 0.00 | 71 | 1022.0 |
| 20260507123029 | 27 | 82 | 2.0 | 0.0 | 0.00 | 0.00 | 0.00 | 72 | 1021.9 |
| 20260507120022 | 24 | 241 | 0.0 | 0.0 | 0.00 | 0.00 | 0.00 | 78 | 1021.7 |
| 20260507115033 | 24 | 242 | 1.0 | 0.0 | 0.00 | 0.00 | 0.00 | 78 | 1021.7 |
| 20260507114026 | 23 | 242 | 0.0 | 0.0 | 0.00 | 0.00 | 0.00 | 79 | 1021.5 |
| 20260507112022 | 24 | 241 | 0.0 | 0.0 | 0.00 | 0.00 | 0.00 | 78 | 1021.8 |
| 20260507110031 | 24 | 241 | 0.0 | 0.0 | 0.00 | 0.00 | 0.00 | 77 | 1021.6 |
| 20260507105023 | 24 | 242 | 0.0 | 0.0 | 0.00 | 0.00 | 0.00 | 76 | 1021.7 |
| 20260507104020 | 24 | 242 | 0.0 | 0.0 | 0.00 | 0.00 | 0.00 | 77 | 1021.5 |
| 20260507103037 | 24 | 241 | 0.0 | 0.0 | 0.00 | 0.00 | 0.00 | 76 | 1021.8 |
| 20260507102034 | 24 | 241 | 0.0 | 0.0 | 0.00 | 0.00 | 0.00 | 77 | 1021.7 |
| 20260507101027 | 24 | 242 | 0.0 | 0.0 | 0.00 | 0.00 | 0.00 | 76 | 1021.6 |
| 20260507100032 | 25 | 242 | 0.0 | 0.0 | 0.00 | 0.00 | 0.00 | 76 | 1021.7 |
| 20260507095032 | 24 | 241 | 0.0 | 0.0 | 0.00 | 0.00 | 0.00 | 76 | 1021.6 |
| 20260507094025 | 24 | 241 | 1.0 | 0.0 | 0.00 | 0.00 | 0.00 | 78 | 1021.7 |
| 20260507093038 | 23 | 242 | 0.0 | 0.0 | 0.00 | 0.00 | 0.00 | 79 | 1021.5 |
| 20260507092028 | 23 | 241 | 0.0 | 0.0 | 0.00 | 0.00 | 0.00 | 79 | 1021.7 |
| 20260507091023 | 24 | 241 | 0.0 | 0.0 | 0.00 | 0.00 | 0.00 | 78 | 1021.9 |
| 20260507090029 | 24 | 241 | 0.0 | 0.0 | 0.00 | 0.00 | 0.00 | 77 | 1021.6 |
| 20260507085027 | 24 | 242 | 0.0 | 0.0 | 0.00 | 0.00 | 0.00 | 76 | 1021.9 |
| 20260507084039 | 25 | 241 | 0.0 | 0.0 | 0.00 | 0.00 | 0.00 | 75 | 1022.5 |
| 20260507083030 | 25 | 242 | 0.0 | 0.0 | 0.00 | 0.00 | 0.00 | 75 | 1022.3 |
| 20260507082026 | 25 | 242 | 0.0 | 0.0 | 0.00 | 0.00 | 0.00 | 74 | 1022.3 |
| 20260507080034 | 25 | 242 | 0.0 | 0.0 | 0.00 | 0.00 | 0.00 | 74 | 1022.5 |
| 20260507074022 | 26 | 242 | 0.0 | 0.0 | 0.00 | 0.00 | 0.00 | 71 | 1022.4 |
| 20260507073037 | 27 | 241 | 0.0 | 0.0 | 0.00 | 0.00 | 0.00 | 71 | 1022.6 |
| 20260507072033 | 26 | 242 | 0.0 | 0.0 | 0.00 | 0.00 | 0.00 | 73 | 1022.7 |
| 20260507071025 | 26 | 242 | 0.0 | 0.0 | 0.00 | 0.00 | 0.00 | 72 | 1022.8 |
| 20260507065036 | 27 | 241 | 0.0 | 0.0 | 0.00 | 0.00 | 0.00 | 70 | 1022.4 |
| 20260507064032 | 28 | 242 | 0.0 | 0.0 | 0.00 | 0.00 | 0.00 | 69 | 1022.5 |
| 20260507063030 | 28 | 242 | 0.0 | 0.0 | 0.00 | 0.00 | 0.00 | 68 | 1022.4 |
| 20260507062022 | 28 | 241 | 0.0 | 0.0 | 0.00 | 0.00 | 0.00 | 68 | 1022.4 |
| 20260507061036 | 27 | 241 | 0.0 | 0.0 | 0.00 | 0.00 | 0.00 | 70 | 1022.3 |
| 20260507060025 | 28 | 242 | 0.0 | 0.0 | 0.00 | 0.00 | 0.00 | 68 | 1022.1 |
| 20260507055020 | 28 | 241 | 0.0 | 0.0 | 0.00 | 0.00 | 0.02 | 68 | 1022.1 |
| 20260507054018 | 29 | 241 | 0.0 | 0.0 | 0.00 | 0.00 | 0.02 | 66 | 1021.9 |
| 20260507053037 | 29 | 242 | 0.0 | 0.0 | 0.00 | 0.00 | 0.02 | 65 | 1021.8 |
| 20260507052030 | 29 | 242 | 1.0 | 0.0 | 0.00 | 0.00 | 0.02 | 66 | 1021.8 |
| 20260507051022 | 27 | 241 | 0.0 | 0.0 | 0.00 | 0.00 | 0.02 | 70 | 1022.1 |
| 20260507045034 | 27 | 241 | 0.0 | 0.0 | 0.00 | 0.00 | 0.02 | 74 | 1022.3 |
| 20260507043040 | 27 | 241 | 0.0 | 0.0 | 0.00 | 0.00 | 0.02 | 76 | 1022.3 |
| 20260507041029 | 27 | 241 | 0.0 | 0.0 | 0.00 | 0.00 | 0.02 | 75 | 1022.8 |
| 20260507040023 | 28 | 241 | 0.0 | 0.0 | 0.00 | 0.00 | 0.02 | 73 | 1022.7 |
| 20260507035038 | 28 | 241 | 0.0 | 0.0 | 0.00 | 0.00 | 0.02 | 74 | 1022.8 |
| 20260507034030 | 28 | 241 | 0.0 | 0.0 | 0.00 | 0.00 | 0.02 | 71 | 1022.6 |
| 20260507033042 | 28 | 241 | 0.0 | 0.0 | 0.00 | 0.00 | 0.02 | 72 | 1022.5 |
| 20260507031031 | 29 | 241 | 0.0 | 0.0 | 0.00 | 0.00 | 0.02 | 71 | 1022.0 |
| 20260507030030 | 29 | 241 | 0.0 | 0.0 | 0.00 | 0.00 | 0.02 | 68 | 1021.8 |
| 20260507025023 | 30 | 241 | 0.0 | 0.0 | 0.00 | 0.00 | 0.02 | 68 | 1021.8 |
| 20260507024033 | 30 | 241 | 0.0 | 0.0 | 0.00 | 0.00 | 0.02 | 69 | 1021.4 |
| 20260507023026 | 30 | 241 | 0.0 | 0.0 | 0.00 | 0.00 | 0.02 | 69 | 1021.4 |
| 20260507022024 | 30 | 241 | 0.0 | 0.0 | 0.00 | 0.00 | 0.02 | 69 | 1021.3 |
| 20260507021040 | 31 | 241 | 0.0 | 0.0 | 0.00 | 0.00 | 0.02 | 67 | 1021.3 |
| 20260507020032 | 31 | 241 | 0.0 | 0.0 | 0.00 | 0.00 | 0.02 | 64 | 1020.9 |
| 20260507014037 | 33 | 241 | 0.0 | 0.0 | 0.00 | 0.00 | 0.02 | 62 | 1020.5 |
| 20260507013030 | 33 | 241 | 0.0 | 0.0 | 0.00 | 0.00 | 0.02 | 59 | 1020.2 |
| 20260507012027 | 34 | 241 | 0.0 | 0.0 | 0.00 | 0.00 | 0.02 | 58 | 1020.1 |
| 20260507011038 | 34 | 241 | 1.0 | 0.0 | 0.00 | 0.00 | 0.02 | 56 | 1020.1 |
| 20260507010033 | 35 | 219 | 1.0 | 0.0 | 0.00 | 0.00 | 0.02 | 54 | 1019.9 |
| 20260507005026 | 35 | 236 | 1.0 | 0.0 | 0.00 | 0.00 | 0.02 | 55 | 1019.6 |
| 20260507004023 | 36 | 325 | 0.0 | 0.0 | 0.00 | 0.00 | 0.02 | 53 | 1019.2 |
| 20260507003034 | 36 | 321 | 0.0 | 0.0 | 0.00 | 0.00 | 0.02 | 55 | 1019.0 |
| 20260507002028 | 37 | 325 | 1.0 | 0.0 | 0.00 | 0.00 | 0.02 | 55 | 1019.0 |
| 20260507001041 | 37 | 355 | 0.0 | 0.0 | 0.00 | 0.00 | 0.02 | 53 | 1018.9 |
| 20260507000031 | 36 | 294 | 0.0 | 0.0 | 0.00 | 0.00 | 0.02 | 57 | 1018.9 |
| 20260506235029 | 36 | 262 | 1.0 | 0.0 | 0.00 | 0.00 | 0.02 | 57 | 1018.7 |
| 20260506234023 | 37 | 334 | 1.0 | 0.0 | 0.00 | 0.00 | 0.02 | 55 | 1018.7 |
| 20260506232036 | 38 | 307 | 1.0 | 0.0 | 0.00 | 0.00 | 0.02 | 56 | 1018.6 |
| 20260506231029 | 38 | 307 | 0.0 | 0.0 | 0.00 | 0.00 | 0.02 | 57 | 1018.3 |
| 20260506230029 | 39 | 303 | 1.0 | 0.0 | 0.00 | 0.00 | 0.02 | 53 | 1018.2 |
| 20260506225026 | 39 | 286 | 1.0 | 0.0 | 0.00 | 0.00 | 0.02 | 53 | 1018.0 |
| 20260506224040 | 38 | 277 | 1.0 | 0.0 | 0.00 | 0.00 | 0.02 | 56 | 1017.9 |
| 20260506223035 | 38 | 294 | 3.0 | 0.0 | 0.00 | 0.00 | 0.02 | 59 | 1018.0 |
| 20260506222027 | 39 | 280 | 2.0 | 0.0 | 0.00 | 0.00 | 0.02 | 58 | 1018.0 |
| 20260506220020 | 40 | 289 | 2.0 | 0.0 | 0.00 | 0.00 | 0.02 | 53 | 1017.7 |